FW8773 Weather Reports


time (UTC)temp
C
wind
direction
speed
KPH
gust
KPH
rain 1hr
cm
rain 24hr
cm
rain mn
cm
humidity
%
barometer
mb
20260504204622 28 146 0.0 17.7 0.00 0.00 0.00 16 999.6
20260504203044 28 270 0.0 9.7 0.00 0.00 0.00 17 999.7
20260504201542 27 27 0.0 14.5 0.00 0.00 0.00 18 1000.0
20260504200041 27 68 4.8 16.1 0.00 0.00 0.00 18 1000.1
20260504194547 27 16 12.9 19.3 0.00 0.00 0.00 18 1000.2
20260504193036 28 360 1.6 9.7 0.00 0.00 0.00 18 1000.6
20260504191534 28 360 3.2 9.7 0.00 0.00 0.00 18 1000.9
20260504190035 27 360 0.0 11.3 0.00 0.00 0.00 19 1001.2
20260504184526 26 360 4.8 20.9 0.00 0.00 0.00 20 1001.3
20260504183028 26 5 6.4 17.7 0.00 0.00 0.00 20 1001.4
20260504181522 25 292 4.8 16.1 0.00 0.00 0.00 20 1001.7
20260504180018 25 47 9.7 19.3 0.00 0.00 0.00 21 1002.1
20260504174515 24 46 8.0 22.5 0.00 0.00 0.00 22 1002.1
20260504173015 24 64 8.0 22.5 0.00 0.00 0.00 23 1002.3
20260504171532 25 13 12.9 20.9 0.00 0.00 0.00 22 1002.5
20260504130117 8 360 8.0 17.7 0.00 0.00 0.00 65 1003.0
20260504081526 8 304 0.0 1.6 0.00 0.00 0.00 60 1003.7
20260504044547 13 98 0.0 4.8 0.00 0.00 0.00 46 1005.0
20260504043047 14 98 1.6 11.3 0.00 0.00 0.00 45 1005.2
20260504041549 15 84 1.6 11.3 0.00 0.00 0.00 43 1005.5
20260504040045 15 83 6.4 14.5 0.00 0.00 0.00 42 1005.5
20260504034600 16 99 9.7 14.5 0.00 0.00 0.00 41 1005.6
20260504033044 16 80 8.0 16.1 0.00 0.00 0.00 40 1005.5
20260504031544 16 67 8.0 16.1 0.00 0.00 0.00 38 1005.6
20260504030044 17 88 9.7 16.1 0.00 0.00 0.00 36 1005.4
20260504024543 17 93 9.7 16.1 0.00 0.00 0.00 35 1005.3
20260504023042 18 86 4.8 16.1 0.00 0.00 0.00 33 1005.2
20260504021541 20 102 6.4 14.5 0.00 0.00 0.00 31 1005.2
20260504020040 20 83 6.4 14.5 0.00 0.00 0.00 30 1005.0
20260504014552 21 75 8.0 14.5 0.00 0.00 0.00 29 1004.9
20260504013039 22 72 9.7 16.1 0.00 0.00 0.00 26 1005.0
20260504011542 23 66 4.8 11.3 0.00 0.00 0.00 23 1004.8
20260504010037 24 66 4.8 12.9 0.00 0.00 0.00 22 1005.0
20260504004535 25 67 4.8 14.5 0.00 0.00 0.00 21 1004.9
20260504003040 24 42 4.8 11.3 0.00 0.00 0.00 22 1005.0
20260504001534 25 42 6.4 14.5 0.00 0.00 0.00 20 1005.0
20260504000031 25 18 6.4 14.5 0.00 0.00 0.00 19 1005.3
20260503234542 26 16 9.7 16.1 0.00 0.00 0.00 19 1005.3
20260503233030 26 57 3.2 8.0 0.00 0.00 0.00 18 1005.4
20260503231528 26 336 3.2 16.1 0.00 0.00 0.00 18 1005.7
20260503230028 26 348 3.2 12.9 0.00 0.00 0.00 19 1005.7
20260503224524 26 360 3.2 14.5 0.00 0.00 0.00 18 1005.8
20260503223023 26 360 11.3 19.3 0.00 0.00 0.00 18 1005.8
20260503221523 26 34 1.6 9.7 0.00 0.00 0.00 18 1006.1
20260503220037 27 360 12.9 17.7 0.00 0.00 0.00 18 1006.3
20260503214516 27 60 0.0 6.4 0.00 0.00 0.00 18 1006.7
20260503213014 27 76 3.2 17.7 0.00 0.00 0.00 19 1006.8
20260503211510 26 79 0.0 17.7 0.00 0.00 0.00 21 1007.2
20260503210006 25 19 4.8 16.1 0.00 0.00 0.00 21 1007.5